Wind_Speed
12 12 12 12 12 12 13 14 14 14 14 14 14 14 15 15 15 15 15 15 15 16 16 16 16 16 16 16 16 17 17 17 17 17 17 16 17 16 16 16 16 16 16
12 12 13 13 13 13 13 14 14 14 14 14 14 14 15 14 15 16 15 16 16 16 16 16 16 16 16 16 16 16 17 18 18 18 18 18 18 18 18 17 17 17 16
12 12 12 13 13 13 13 14 14 14 14 14 15 15 15 15 16 16 16 16 16 16 17 17 17 17 17 17 17 17 17 17 18 18 19 19 19 19 19 18 18 18 17
13 13 12 13 13 13 14 14 14 14 14 15 15 15 16 16 16 17 16 17 17 17 18 18 18 18 18 18 18 19 19 19 19 20 20 20 20 19 19 19 19 19 18
13 13 13 13 13 13 14 14 14 14 15 15 16 16 16 16 17 17 18 18 19 19 19 19 19 19 19 19 20 20 20 20 21 21 21 21 20 20 20 20 20 20 19
13 13 13 14 14 14 14 14 14 15 15 16 16 17 16 17 17 17 18 19 19 20 20 20 20 20 20 20 21 21 21 21 21 21 21 21 21 21 20 20 21 21 21
13 13 14 15 14 13 13 14 14 15 15 15 16 16 16 17 17 18 18 19 20 20 20 21 20 20 21 21 21 21 21 21 22 22 21 21 21 21 21 21 21 21 21
13 13 13 13 13 13 13 14 15 15 15 15 15 16 17 17 18 18 19 20 20 20 21 21 20 20 20 21 21 22 22 22 22 22 21 22 21 21 21 21 21 21 21
13 13 13 14 14 14 14 15 16 17 16 16 16 17 18 19 19 20 19 19 20 20 21 21 21 21 21 21 21 21 21 21 21 22 22 21 21 21 22 22 22 22 22
14 14 14 15 16 15 16 17 17 18 18 18 18 18 19 20 20 21 20 20 20 20 21 21 21 21 21 21 21 21 21 20 21 22 22 22 22 21 22 22 22 22 22
14 15 15 16 17 16 17 17 17 18 18 18 18 19 20 21 21 22 22 21 21 20 20 21 21 22 22 21 21 21 21 20 21 21 22 22 22 22 22 22 22 22 22
15 15 16 16 17 17 18 18 18 18 18 19 19 20 21 21 22 23 23 22 21 21 21 21 22 22 22 22 21 21 21 21 21 22 22 23 23 23 23 23 23 23 23
16 17 17 18 18 18 18 18 18 19 19 20 21 21 22 23 23 23 23 22 22 23 22 22 22 23 22 23 23 23 22 22 22 22 23 23 23 23 24 24 24 24 24
18 19 19 20 20 20 20 20 19 20 21 21 22 22 23 23 23 24 23 23 24 23 24 24 24 24 24 24 24 24 24 24 23 23 23 23 23 24 24 24 24 24 25
20 21 21 22 22 21 22 22 21 21 22 23 23 24 24 24 24 25 25 25 24 24 24 25 25 25 25 25 25 26 25 25 24 23 24 24 24 24 24 25 25 24 25
22 22 22 22 22 23 23 24 23 24 24 24 24 25 25 25 25 25 25 25 25 24 25 25 25 26 26 26 26 26 26 25 25 24 24 25 26 26 26 26 25 25 26
23 23 23 24 25 25 26 26 26 26 26 26 26 26 26 26 26 25 26 26 26 25 25 26 26 26 26 26 26 26 26 25 25 25 25 26 27 27 27 27 27 26 26
25 25 25 25 26 27 27 27 27 27 27 27 27 26 26 26 27 27 26 26 27 27 26 26 25 25 26 26 26 26 26 26 26 26 26 26 27 28 29 29 29 28 28
25 25 26 27 27 27 27 28 27 27 27 27 27 26 26 26 26 26 25 26 27 27 27 26 26 25 26 26 25 26 26 26 27 27 27 27 27 28 30 30 30 29 30
27 27 26 27 27 27 27 28 28 28 28 27 27 27 26 26 26 26 26 27 27 28 27 26 25 26 26 26 26 26 26 27 27 28 28 28 28 28 29 30 30 31 30
27 27 27 27 27 27 27 27 28 28 28 27 27 27 26 26 26 26 26 26 27 27 26 25 25 25 25 26 26 26 27 28 29 29 30 30 30 29 29 30 31 31 31
26 26 27 26 26 26 26 26 26 27 27 26 27 26 26 26 26 27 26 26 26 26 25 25 25 26 26 27 27 27 28 29 29 29 30 31 31 31 30 30 30 31 31
25 25 25 25 25 25 25 24 25 25 26 26 26 26 26 26 27 27 26 26 27 27 26 26 26 26 26 27 27 28 29 29 29 29 29 30 30 31 31 31 31 31 31
25 25 25 25 24 25 24 25 25 25 25 25 26 26 27 27 27 27 26 26 27 27 27 27 27 26 27 27 27 28 28 28 29 29 30 30 30 30 31 32 32 32 31
25 25 25 25 24 23 23 24 24 24 24 25 25 26 26 26 26 27 27 27 27 27 27 27 26 26 26 26 27 26 26 27 27 28 28 29 29 30 30 31 32 32 32
25 24 24 24 23 23 23 23 23 23 24 24 25 25 26 26 26 26 26 26 27 27 26 26 26 26 26 26 26 25 25 25 26 27 27 28 28 29 29 30 31 32 32
Wind_Direction
270 270 271 273 276 276 276 276 276 276 276 278 279 281 281 279 276 276 277 278 280 280 280 279 275 271 270 271 270 270 269 267 267 268 269 269 268 268 267 265 266 268 270
273 272 273 274 276 277 276 276 277 278 278 279 280 280 281 283 283 280 279 280 280 279 279 277 275 275 273 271 271 270 270 269 268 268 268 269 269 268 269 269 269 269 270
276 273 275 275 275 277 279 279 279 279 279 281 282 282 283 283 282 280 280 282 281 278 277 276 273 273 273 272 271 271 271 271 271 271 271 270 270 270 269 268 269 269 269
277 273 272 273 275 278 280 282 281 282 283 284 285 286 285 285 282 281 279 283 283 281 277 275 273 272 272 272 273 272 270 271 272 271 272 272 271 269 268 267 268 269 269
276 274 273 275 277 280 283 282 283 284 284 285 287 286 287 287 286 286 284 285 286 284 279 276 275 274 273 273 273 274 273 272 272 271 271 271 270 268 266 266 266 267 268
275 274 273 274 276 281 282 283 284 284 283 284 285 286 287 289 289 289 288 288 288 286 281 277 276 275 275 274 274 274 274 273 272 272 271 271 270 268 267 266 266 265 266
275 273 275 276 277 279 282 286 287 288 287 286 286 285 286 288 290 292 292 291 291 289 285 280 279 278 276 276 276 275 274 272 270 269 269 270 270 269 268 267 265 264 264
277 274 276 279 282 283 284 287 289 289 287 286 285 284 285 287 289 292 293 292 291 287 284 282 280 279 279 278 277 277 276 273 270 268 268 269 269 268 267 268 265 264 263
277 276 278 281 285 286 285 287 288 287 285 283 282 284 286 287 289 291 291 291 291 288 285 282 279 278 278 278 278 277 277 273 270 268 267 267 268 266 267 267 267 266 264
277 277 278 281 282 283 286 286 287 286 284 283 285 288 290 290 289 290 289 290 290 289 287 283 280 280 279 279 277 277 276 273 271 268 267 267 267 267 268 268 269 266 263
277 277 277 279 280 280 284 286 287 287 287 287 289 290 291 291 290 290 289 288 289 289 286 283 282 282 280 278 277 277 275 273 272 270 268 268 267 267 268 267 267 266 263
279 278 277 280 280 280 284 286 287 288 288 288 289 290 290 290 291 291 288 288 289 287 285 284 282 281 279 277 277 277 276 275 273 270 269 267 266 266 266 266 266 265 264
279 279 281 281 282 283 286 287 288 288 289 289 288 288 289 291 293 293 290 288 288 286 284 283 281 281 279 276 276 277 276 275 273 271 268 267 265 265 264 264 264 264 264
280 281 281 282 281 282 284 286 286 286 287 289 290 289 290 292 292 293 290 289 289 287 283 281 280 279 278 276 274 274 275 274 274 271 269 268 266 265 264 264 264 263 262
278 280 279 279 278 280 283 284 284 285 287 289 291 291 290 291 291 291 288 289 290 289 285 282 279 278 278 277 274 274 274 274 274 271 270 269 267 265 265 264 264 263 264
276 277 277 276 278 281 283 284 285 286 287 288 290 291 292 291 291 290 288 289 289 289 287 284 281 278 278 277 275 274 273 272 272 271 269 268 267 265 265 264 263 264 264
275 276 277 278 280 281 283 284 284 284 285 287 289 289 291 292 291 288 288 289 289 289 288 284 282 278 277 276 276 276 273 271 271 272 270 267 266 265 264 264 265 266 265
276 277 278 279 281 281 281 281 283 284 285 287 288 288 289 291 291 289 288 289 290 291 289 284 281 279 279 278 277 276 274 271 270 271 270 269 268 265 264 264 264 265 265
277 278 279 279 281 281 280 280 282 284 285 286 287 286 287 289 291 290 289 290 291 291 290 284 281 280 279 278 277 275 274 272 270 269 270 270 269 267 266 265 265 265 265
279 280 279 280 281 281 281 280 281 283 284 285 286 286 287 288 289 289 290 290 290 291 289 285 282 282 281 280 278 277 276 274 272 270 270 270 269 267 266 266 266 266 267
280 279 279 280 280 281 280 280 281 283 284 284 285 286 286 288 288 289 291 291 292 292 290 288 285 283 281 280 279 278 277 275 273 271 270 269 268 268 268 268 267 267 266
280 279 280 279 279 280 280 280 282 283 283 283 285 287 287 288 289 290 291 292 292 292 291 289 287 285 284 282 279 277 277 276 274 273 271 269 268 268 269 269 269 268 268
283 282 282 281 281 282 282 282 282 283 284 284 286 288 290 291 291 291 291 292 293 292 291 289 288 287 285 283 281 278 278 276 274 273 272 270 268 268 269 270 270 270 270
283 283 282 282 283 283 283 284 284 284 285 285 286 289 291 292 293 293 292 292 293 293 292 291 289 288 286 284 283 281 279 276 275 273 272 272 270 269 269 269 270 270 271
283 283 283 281 281 283 285 286 285 285 286 287 288 289 291 292 292 293 294 294 293 293 293 292 291 290 288 287 285 283 280 279 277 275 273 272 271 271 271 270 269 270 271
282 282 282 282 282 283 285 286 288 288 288 289 289 290 291 292 292 293 295 296 295 294 293 292 292 292 292 290 288 285 282 281 279 277 275 274 273 273 274 273 271 270 271
Height
5827 5827 5827 5827 5827 5827 5828 5827 5827 5827 5827 5827 5826 5826 5825 5825 5824 5824 5824 5823 5823 5822 5822 5822 5821 5821 5821 5821 5821 5821 5821 5821 5821 5821 5821 5821 5822 5822 5822 5821 5821 5822 5821
5824 5824 5824 5824 5824 5824 5824 5824 5823 5823 5823 5823 5822 5822 5822 5821 5821 5820 5820 5819 5819 5818 5818 5817 5817 5817 5817 5817 5816 5816 5816 5816 5817 5817 5817 5817 5818 5817 5817 5817 5817 5817 5817
5821 5821 5821 5821 5821 5820 5820 5820 5820 5819 5819 5819 5819 5818 5818 5817 5817 5816 5815 5815 5814 5814 5813 5813 5813 5812 5812 5812 5812 5812 5812 5812 5812 5812 5812 5812 5813 5813 5813 5813 5813 5813 5813
5818 5818 5818 5818 5817 5817 5816 5816 5816 5816 5815 5815 5814 5814 5814 5813 5812 5812 5811 5810 5810 5809 5809 5808 5808 5807 5807 5807 5807 5807 5807 5807 5807 5807 5807 5808 5807 5808 5808 5808 5808 5808 5809
5815 5814 5814 5814 5814 5813 5813 5812 5812 5812 5811 5811 5810 5810 5809 5809 5808 5807 5807 5806 5805 5804 5804 5803 5803 5802 5802 5802 5802 5802 5802 5802 5802 5802 5802 5802 5802 5802 5803 5803 5803 5803 5804
5812 5811 5811 5811 5810 5810 5809 5809 5808 5808 5807 5807 5806 5806 5805 5804 5804 5803 5802 5801 5800 5799 5799 5798 5797 5797 5797 5797 5796 5796 5796 5796 5796 5796 5796 5796 5796 5797 5797 5798 5798 5798 5799
5808 5808 5807 5807 5807 5806 5806 5805 5804 5804 5803 5802 5802 5801 5801 5800 5799 5798 5797 5796 5795 5794 5793 5792 5792 5791 5791 5791 5791 5790 5790 5790 5790 5790 5791 5791 5791 5791 5792 5792 5792 5793 5793
5805 5804 5804 5804 5803 5802 5802 5801 5800 5800 5799 5798 5797 5797 5796 5795 5794 5793 5792 5791 5790 5789 5787 5787 5786 5785 5785 5785 5784 5784 5784 5784 5784 5784 5785 5785 5785 5785 5786 5786 5787 5787 5787
5801 5800 5800 5800 5799 5799 5798 5797 5796 5795 5794 5793 5793 5792 5791 5790 5789 5787 5786 5785 5784 5783 5781 5780 5780 5779 5779 5778 5778 5778 5778 5778 5778 5778 5778 5779 5779 5779 5780 5780 5781 5781 5782
5797 5796 5796 5796 5795 5795 5794 5793 5792 5791 5790 5789 5788 5787 5785 5784 5783 5781 5780 5779 5778 5776 5775 5774 5773 5773 5772 5772 5772 5772 5772 5772 5772 5772 5772 5773 5773 5773 5774 5774 5774 5775 5776
5793 5793 5792 5792 5791 5790 5789 5788 5787 5786 5785 5784 5782 5781 5780 5778 5777 5775 5774 5773 5771 5770 5769 5768 5767 5766 5766 5765 5765 5765 5765 5765 5766 5766 5766 5766 5766 5767 5767 5768 5768 5769 5769
5789 5789 5788 5787 5786 5786 5785 5784 5782 5781 5780 5778 5777 5776 5774 5772 5771 5769 5768 5766 5765 5763 5762 5761 5760 5760 5759 5758 5758 5758 5758 5758 5759 5759 5759 5760 5760 5760 5761 5761 5762 5762 5763
5785 5784 5783 5782 5781 5780 5779 5778 5777 5775 5774 5773 5771 5770 5768 5767 5765 5763 5761 5760 5758 5757 5755 5754 5753 5753 5752 5752 5751 5751 5751 5751 5752 5752 5752 5752 5753 5754 5754 5755 5755 5756 5756
5780 5779 5778 5777 5776 5775 5773 5772 5771 5769 5768 5766 5765 5764 5762 5760 5758 5756 5754 5753 5751 5750 5748 5747 5746 5745 5745 5744 5744 5744 5744 5744 5744 5744 5745 5745 5746 5746 5747 5747 5748 5749 5749
5774 5773 5772 5771 5769 5768 5767 5766 5765 5763 5762 5760 5758 5757 5755 5753 5751 5749 5747 5745 5744 5742 5740 5739 5738 5738 5737 5737 5736 5736 5736 5736 5737 5737 5737 5737 5738 5739 5739 5740 5741 5741 5742
5768 5767 5765 5764 5763 5762 5761 5760 5758 5757 5755 5753 5751 5749 5747 5746 5744 5742 5740 5738 5736 5734 5733 5731 5730 5730 5729 5729 5728 5728 5728 5729 5729 5729 5729 5730 5730 5731 5731 5732 5733 5734 5734
5761 5760 5759 5757 5756 5755 5753 5752 5751 5749 5747 5746 5744 5742 5740 5738 5736 5734 5732 5730 5728 5726 5725 5723 5722 5722 5721 5721 5720 5720 5720 5720 5721 5721 5721 5722 5722 5722 5723 5724 5724 5725 5726
5753 5752 5751 5750 5748 5747 5745 5744 5742 5741 5740 5738 5736 5734 5733 5731 5729 5727 5725 5723 5721 5718 5717 5715 5714 5713 5713 5712 5712 5712 5712 5712 5713 5713 5713 5713 5714 5714 5715 5715 5716 5716 5717
5745 5744 5743 5741 5740 5738 5737 5735 5734 5733 5732 5730 5728 5727 5725 5723 5722 5720 5718 5716 5713 5711 5709 5707 5706 5705 5705 5704 5704 5703 5704 5704 5704 5704 5705 5705 5705 5705 5705 5706 5707 5708 5708
5737 5736 5734 5733 5732 5730 5728 5727 5726 5725 5723 5722 5720 5719 5717 5716 5714 5712 5710 5708 5706 5703 5701 5699 5698 5697 5697 5696 5695 5695 5695 5695 5695 5695 5695 5695 5696 5696 5696 5697 5697 5698 5699
5729 5728 5726 5725 5723 5722 5720 5719 5718 5716 5715 5714 5713 5711 5710 5708 5706 5705 5703 5701 5698 5696 5694 5692 5690 5689 5689 5688 5687 5686 5686 5686 5686 5686 5686 5686 5686 5686 5686 5687 5688 5688 5689
5721 5719 5718 5716 5715 5713 5712 5711 5710 5708 5707 5706 5705 5703 5702 5701 5699 5697 5695 5693 5691 5689 5686 5685 5683 5682 5680 5679 5678 5677 5677 5676 5676 5676 5676 5676 5676 5676 5677 5677 5678 5678 5679
5713 5712 5710 5708 5707 5706 5704 5703 5702 5701 5700 5698 5697 5696 5695 5693 5691 5689 5687 5685 5683 5681 5679 5677 5675 5674 5672 5670 5669 5668 5667 5666 5666 5666 5665 5665 5666 5666 5666 5667 5668 5668 5668
5706 5704 5703 5701 5700 5699 5697 5696 5695 5694 5692 5691 5690 5689 5687 5686 5684 5682 5680 5677 5675 5673 5671 5669 5667 5665 5663 5661 5660 5659 5658 5657 5656 5655 5655 5655 5655 5656 5656 5657 5657 5658 5658
5699 5697 5696 5694 5693 5692 5690 5689 5688 5687 5686 5684 5683 5682 5680 5678 5676 5674 5672 5670 5668 5665 5663 5661 5659 5657 5655 5653 5651 5650 5648 5647 5646 5645 5645 5645 5645 5646 5646 5646 5647 5647 5647
5692 5690 5689 5687 5686 5685 5684 5683 5681 5680 5679 5677 5676 5675 5673 5671 5669 5667 5665 5662 5660 5657 5655 5653 5651 5649 5647 5645 5642 5640 5639 5637 5636 5636 5635 5635 5636 5636 5636 5636 5636 5636 5637